Yakima, WA

10:55 AM PDT on August 25, 2016 (GMT -0700)
Vagabond Aaf / Yakim

Weather History for K1YT - October, 2013

Change the Weather History Date:

Saturday, October 19, 2013

  Actual Average (KYKM) Record (KYKM)
Temperature  
Mean Temperature 49 °F 48 °F  
Max Temperature 64 °F 62 °F 75 °F (2015)
Min Temperature 34 °F 33 °F 17 °F (1949)
Degree Days  
Heating Degree Days 16 17  
Month to date heating degree days 259  
Since 1 July heating degree days 467  
Cooling Degree Days 0 0  
Month to date cooling degree days 0  
Year to date cooling degree days 472  
Moisture  
Dew Point 34 °F    
Average Humidity 63    
Maximum Humidity 85    
Minimum Humidity 33    
Precipitation  
Precipitation 0.00 in 0.02 in 0.63 in (1947)
Month to date precipitation 0.27  
Year to date precipitation 5.40  
Snow  
Snow - 0.00 in 0.00 in (2002)
Month to date snowfall 0.0  
Year to date snowfall 8.6  
Since 1 July snowfall 0.0  
Snow Depth -    
Sea Level Pressure  
Sea Level Pressure 30.14 in    
Wind  
Wind Speed 3 mph ()    
Max Wind Speed 8 mph    
Max Gust Speed -    
Visibility 12.0 miles    
Events      
T = Trace of Precipitation, MM = Missing Value Source: Averaged Metar Reports

Daily Weather History Graph

Daily Weather History Graph

Search for Another Location

Airport or City:

Trip Planner

Search our weather history database for the weather conditions in past years. The results will help you decide how hot, cold, wet, or windy it might be!

Date:

Astronomy

Oct. 19, 2013 Rise Set
Actual Time 7:25 AM PDT 6:07 PM PDT
Civil Twilight 6:54 AM PDT 6:37 PM PDT
Nautical Twilight 6:19 AM PDT 7:12 PM PDT
Astronomical Twilight 5:44 AM PDT 7:47 PM PDT
Moon 6:33 PM PDT (10/19) 8:12 AM PDT (10/19)
Length of Visible Light 11h 42m
Length of Day
10h 41m
Full, 99% of the Moon is Illuminated
Oct 19
Full
Oct 26
Last Quarter
Nov 3
New
Nov 9
First Quarter
Nov 17
Full

Hourly Weather History & Observations

Time (PDT) Temp. Windchill Dew Point Humidity Pressure Visibility Wind Dir Wind Speed Gust Speed Precip Events Conditions
12:56 AM 42.1 °F - 33.4 °F 71% 30.18 in 12.0 mi West 2.3 mph - N/A   Clear
1:56 AM 39.7 °F - 32.7 °F 76% 30.18 in 12.0 mi Variable 1.2 mph - N/A   Clear
2:56 AM 36.1 °F - 30.7 °F 81% 30.18 in 12.0 mi SSW 2.3 mph - N/A   Clear
3:56 AM 36.5 °F 33.9 °F 31.3 °F 81% 30.17 in 12.0 mi South 3.5 mph - N/A   Clear
4:56 AM 35.4 °F 32.6 °F 30.6 °F 82% 30.16 in 12.0 mi ESE 3.5 mph - N/A   Clear
5:56 AM 34.9 °F 32.0 °F 30.4 °F 84% 30.15 in 12.0 mi WSW 3.5 mph - N/A   Clear
6:56 AM 34.2 °F - 30.2 °F 85% 30.15 in 12.0 mi ESE 1.2 mph - N/A   Clear
7:56 AM 34.7 °F - 29.8 °F 82% 30.16 in 12.0 mi Variable 2.3 mph - N/A   Clear
8:56 AM 38.1 °F - 32.4 °F 80% 30.15 in 12.0 mi WSW 2.3 mph - N/A   Clear
9:56 AM 43.9 °F 42.3 °F 34.2 °F 69% 30.16 in 12.0 mi North 3.5 mph - N/A   Clear
10:56 AM 49.1 °F - 36.0 °F 61% 30.15 in 12.0 mi NNW 3.5 mph - N/A   Clear
11:56 AM 54.3 °F - 37.2 °F 52% 30.14 in 12.0 mi Variable 2.3 mph - N/A   Clear
12:56 PM 58.6 °F - 35.6 °F 42% 30.13 in 12.0 mi NW 3.5 mph - N/A   Clear
1:56 PM 60.8 °F - 36.5 °F 40% 30.10 in 12.0 mi Variable 4.6 mph - N/A   Clear
2:56 PM 63.7 °F - 35.1 °F 34% 30.10 in 12.0 mi NW 5.8 mph - N/A   Clear
3:56 PM 64.0 °F - 34.3 °F 33% 30.09 in 12.0 mi WNW 8.1 mph - N/A   Clear
4:56 PM 63.7 °F - 36.9 °F 37% 30.09 in 12.0 mi SSW 5.8 mph - N/A   Clear
5:56 PM 59.2 °F - 36.9 °F 43% 30.10 in 12.0 mi WNW 2.3 mph - N/A   Clear
6:56 PM 51.3 °F - 35.6 °F 55% 30.11 in 12.0 mi East 3.5 mph - N/A   Clear
7:56 PM 51.6 °F - 36.1 °F 56% 30.12 in 12.0 mi NNE 2.3 mph - N/A   Clear
8:56 PM 47.1 °F - 34.5 °F 62% 30.13 in 12.0 mi Variable 1.2 mph - N/A   Clear
9:56 PM 44.1 °F 40.8 °F 34.7 °F 70% 30.14 in 12.0 mi SW 5.8 mph - N/A   Clear
10:56 PM 43.0 °F - 34.7 °F 73% 30.15 in 12.0 mi Variable 1.2 mph - N/A   Clear
11:56 PM 41.9 °F - 33.6 °F 72% 30.16 in 12.0 mi Variable 1.2 mph - N/A   Clear